Starlink 3044

operational
NORAD ID: 49438 Int'l Des: 2021-104 Owner: SPXS Country: US Constellation: starlink
LEOCIRCULAR

Starlink 3044について

説明を読み込み中...

リアルタイム位置

3D地球を読み込み中...

次回通過

高度履歴

Altitude vs Time

uPlot chart will show altitude changes over time

軌道要素

1 49438U 21104AG 25260.40126338 -.00001148 00000-0 -54073-4 0 9997
2 49438 53.2186 266.9786 0001972 95.1342 264.9875 15.08827502212758
Epoch: Sep 17, 2025 • Age: 37 hours

現在のステータス

高度 544.1 km
速度 7.60 km/s
衛星直下点 48.58°N, 18.08°W
打ち上げ日 Nov 13, 2021
運用期間 3.8 years
タイプ internet

技術仕様

分類 Payload
質量 290.00 kg
乾燥質量 270.00 kg
総質量 290.00 kg
長さ 0.20 m
直径 2.80 m
スパン 9.00 m
形状 Box + pan
製造者 SPXS
バスタイプ Starlink
フェーズステータス In Orbit
所有者/国 SPXS/US

大規模コンステレーション

Loading constellations...